Regional Weather Roundup
Issued by NWS

Home | Current Version | Previous Version | Text Only | Print | Product List | Glossary Off
Versions: 1 2 3 4 5 6 7 8 9 10 11 12 13 14 15 16 17 18 19 20 21 22 23 24 25 26 27 28 29 30 31 32 33 34 35 36 37 38 39 40 41 42 43 44 45 46 47 48 49 50

000
ASUS43 KIND 311509
RWRIN

WEATHER ROUNDUP FOR INDIANA
NATIONAL WEATHER SERVICE INDIANAPOLIS IN
1000 AM EST SAT JAN 31 2015

NOTE: "FAIR" INDICATES FEW OR NO CLOUDS BELOW 12,000 FEET WITH NO
SIGNIFICANT WEATHER AND/OR OBSTRUCTIONS TO VISIBILITY.

* - STATION DOES NOT REPORT WEATHER SUCH AS PRECIPITATION OR FOG.

+ - STATION NOT QUALITY CONTROLLED BY THE NATIONAL WEATHER SERVICE.
    USE DATA WITH CAUTION...ESPECIALLY DEWPOINT AND RELATIVE
    HUMIDITY OBSERVATIONS.

INZ001>003-010>013-019-020-311600-
NORTHWEST INDIANA

CITY           SKY/WX    TMP DP  RH WIND       PRES   REMARKS
GARY /AIRPORT/ MOSUNNY   30  19  64 SW14      30.26F WCI  20
KNOX *+        MOSUNNY   30  12  47 SW13      30.26F WCI  20
LA PORTE +     SUNNY     29  23  79 SW10      30.27S WCI  20
MICHIGAN CITY+ SUNNY     30  19  64 SW10G16   30.26F WCI  21
MONTICELLO +   MOSUNNY   28  22  79 SW9       30.30S WCI  19
RENSSELAER +   MOSUNNY   30  28  93 SW14      30.28F WCI  20
VALPARAISO     SUNNY     27  21  78 SW10      30.26F WCI  17

$$

LMZ046-743>745-311600-
SOUTHERN LAKE MICHIGAN

STATION/POSITION TIME  TEMP WIND        PRES
                       AIR  DIR/SP/G
                 (UTC) (F)  (DEG/KT/KT) (MB)
MICHIGAN CITY    1500   28  190/ 13/ 16   N/A

$$

INZ004-005-014>016-021>024-311600-
NORTH CENTRAL INDIANA

CITY           SKY/WX    TMP DP  RH WIND       PRES   REMARKS
GOSHEN         SUNNY     26  20  77 SW12      30.27S WCI  16
LOGANSPORT +   SUNNY     28  23  80 SW12      30.31S WCI  18
PERU/GRISSOM   SUNNY     28  21  76 SW12      30.30S WCI  18
ROCHESTER +    SUNNY     32  23  69 SW10      30.29F WCI  24
SOUTH BEND     SUNNY     28  20  71 SW13      30.26F WCI  17
WARSAW +       SUNNY     28  19  69 SW6       30.28F WCI  22

$$

INZ006>009-017-018-025>027-311600-
NORTHEAST INDIANA

CITY           SKY/WX    TMP DP  RH WIND       PRES   REMARKS
ANGOLA *+      SUNNY     23  18  80 SW8       30.25F WCI  14
AUBURN +       SUNNY     28  19  69 SW6       30.29F WCI  22
FORT WAYNE     MOSUNNY   26  19  74 SW12      30.31S WCI  16
HUNTINGTON +   SUNNY     27  16  63 SW6       30.30F WCI  20

$$

INZ028-029-035-036-043>045-051>053-311600-
WEST CENTRAL INDIANA

CITY           SKY/WX    TMP DP  RH WIND       PRES   REMARKS
CRAWFORDSVL +  PTSUNNY   27  18  69 SW10      30.33  WCI  17
GREENCASTLE +  PTSUNNY   28  18  64 SW5       30.34S WCI  23
LAFAYETTE      MOSUNNY   28  21  75 SW7       30.32S WCI  21
TERRE HAUTE    PTSUNNY   29  22  75 S7        30.36S WCI  22

$$

INZ030>032-037>040-046>048-054>057-064-065-311600-
CENTRAL INDIANA

CITY           SKY/WX    TMP DP  RH WIND       PRES   REMARKS
ANDERSON       SUNNY     27  19  74 SW6       30.34S WCI  20
CP ATTERBURY + MOSUNNY   27  23  86 CALM      30.37S
FRANKFORT +    MOSUNNY   29  23  79 S12       30.33S WCI  19
GREENWOOD *+   SUNNY     27  18  69 SW6       30.36R WCI  20
INDIANAPOLIS   CLOUDY    24  19  81 SW7       30.35R WCI  16
-EAGLE CREEK   MOSUNNY   26  19  74 SW6       30.34R WCI  19
KOKOMO *+      SUNNY     28  21  74 SW13      30.32R WCI  18
MARION +       SUNNY     26  21  79 SW9       30.32S WCI  17
MT COMFORT *+  SUNNY     27  14  59 SW7       30.34S WCI  19
SHELBYVILLE    SUNNY     27  20  75 S10       30.35S WCI  17
ZIONSVILLE +   MOSUNNY   28  19  70 SW9       30.33S WCI  19

$$

INZ033-034-041-042-049-050-058-059-311600-
EAST CENTRAL INDIANA

CITY           SKY/WX    TMP DP  RH WIND       PRES   REMARKS
MUNCIE         MOSUNNY   27  18  69 SW7       30.32S WCI  19

$$

INZ060-061-067>069-081>083-085>088-311600-
SOUTHWEST INDIANA

CITY           SKY/WX    TMP DP  RH WIND       PRES   REMARKS
EVANSVILLE     PTSUNNY   31  24  75 CALM      30.41R
HUNTINGBURG *+ PTSUNNY   28  21  74 S6        30.40S WCI  22
WASHINGTON +   PTSUNNY   29  20  70 S6        30.38S WCI  23

$$

INZ062-063-066-070>080-084-089>092-311600-
SOUTH CENTRAL AND SOUTHEAST INDIANA

CITY           SKY/WX    TMP DP  RH WIND       PRES   REMARKS
BLOOMINGTON    MOSUNNY   28  20  71 SW8       30.35S WCI  20
NORTH VERNON + MOSUNNY   27  21  80 S6        30.38R WCI  20
SEYMOUR +      MOSUNNY   28  21  74 S5        30.39R WCI  23

$$



USA.gov is the U.S. government's official web portal to all federal, state and local government web resources and services.